Location: ??????
(41.3164°N, 22.6615°E)
Time: 20:31:23
(UTC+00:00)

Meteor 1-21 Rocket - Pass Details

Date: 16 October 2021
Orbit: 834 x 906 km, 81.2° (Epoch: 29 November)

Event Time Altitude Azimuth Distance (km) Brightness Sun altitude
Rises 16:34:16 0° 355° (N) 3,492 7.4 -9.7°
Reaches altitude 10° 16:36:48 10° 1° (N) 2,559 6.7 -10.1°
Maximum altitude 16:42:28 50° 76° (ENE) 1,125 4.5 -11.2°
Drops below altitude 10° 16:48:10 10° 152° (SSE) 2,576 6.5 -12.3°
Sets 16:50:42 0° 157° (SSE) 3,516 7.2 -12.7°
